Regional Weather Roundup
Issued by NWS

Home | Current Version | Previous Version | Text Only | Print | Product List | Glossary On
Versions: 1 2 3 4 5 6 7 8 9 10 11 12 13 14 15 16 17 18 19 20 21 22 23 24 25 26 27 28 29 30 31 32 33 34 35 36 37 38 39 40 41 42 43 44 45 46 47 48 49 50
000
ASHW40 PHFO 200643
RWRHI

WEATHER ROUNDUP FOR HAWAII
NATIONAL WEATHER SERVICE HONOLULU HI
800 PM HST SAT APR 19 2014

THIS IS AN AUTOMATED REPORT THAT HAS NOT BEEN QUALITY CONTROLLED.

NOTE..."FAIR" INDICATES FEW OR NO CLOUDS BELOW 12,000 FEET WITH NO
SIGNIFICANT WEATHER AND/OR OBSTRUCTIONS TO VISIBILITY.

* - THESE SITES REPORT LIMITED FIELDS

HIZ001>004-200700-
KAUAI-NIIHAU-

CITY           SKY/WX    TMP DP  RH WIND       PRES   REMARKS
LIHUE APT      CLOUDY    73  66  78 NE17G24   30.15R
PORT ALLEN*      N/A     73 N/A N/A NE14G23     N/A
POIPU*           N/A     73 N/A N/A NE12G22     N/A
PRINCEVILLE*   NOT AVBL
KOKOLE POINT*  NOT AVBL
MOLOAA DAIRY*  NOT AVBL
WAIMEA HTS*      N/A     72  57  60 E5G17       N/A
PUU OPAE*        N/A     66  55  68 E2G13       N/A
PUU LUA*       NOT AVBL
MAKAHA RIDGE*  NOT AVBL
$$

HIZ005>011-200700-
OAHU-

CITY           SKY/WX    TMP DP  RH WIND       PRES   REMARKS
HONOLULU       MOCLDY    76  62  62 NE15      30.11R
KALAELOA       PTCLDY    74  62  66 E6        30.12R
KANEOHE MCB    MOCLDY    72  61  69 E13G18    30.13R
WHEELER FIELD  CLOUDY    71  62  71 NE5       30.13R
BELLOWS*       NOT AVBL
KAHUKU*          N/A    N/A N/A N/A NE7G14      N/A
WHEELER*       NOT AVBL
WAIANAE HARBOR NOT AVBL
DILLINGHAM*      N/A     73  66  78 NE7G13      N/A
KAHUKU TRN*      N/A     72  64  78 E12G23      N/A
KAWAILOA*      NOT AVBL
KII*             N/A     73  64  73 E17G24      N/A
MAKUA RANGE*     N/A     73  64  73 NE8G20      N/A
OAHU FOREST NW   N/A     63  63 100 N18G33      N/A
SCHOFIELD BRK*   N/A    N/A N/A N/A MISG        N/A
SCHOFIELD S*     N/A     66 N/A N/A CALM        N/A
WAIANAE VLY*     N/A     72  61  68 S8G17       N/A
KUAOKALA*        N/A     70  63  78 E17G29      N/A
HONOULIUULI*   NOT AVBL
MOKUOLOE IS*     N/A    N/A N/A N/A MISG        N/A
PALEHUA*         N/A     75  63  64 CALM        N/A
WAIAWA PHB*    NOT AVBL
$$

HIZ012>013-200700-
MOLOKAI-

CITY           SKY/WX    TMP DP  RH WIND       PRES   REMARKS
MOLOKAI AIRPT  CLOUDY    72  66  81 NE12G21   30.12R
KALAUPAPA      NOT AVBL
MAKAPULAPAI*     N/A     73  64  73 E18G26      N/A
MOLOKAI 1*       N/A     63  59  88 NW1G12      N/A
PUU ALII*        N/A     54  53  98 E3G12       N/A
$$

HIZ016-200700-
KAHOOLAWE-

CITY           SKY/WX    TMP DP  RH WIND       PRES   REMARKS
KAHOOLAWE*       N/A     68 N/A N/A E17G28      N/A
HAKIOAWA*        N/A     69  62  78 MISG        N/A
HONOKANAIA*      N/A     75  62  64 NE10G22     N/A
KANELOA*       NOT AVBL
KEALIALALO*      N/A    N/A N/A N/A E14G26    30.39S
LUA MAKIKA*    NOT AVBL
$$

HIZ014>015-200700-
LANAI-

CITY           SKY/WX    TMP DP  RH WIND       PRES   REMARKS
LANAI CITY     FAIR      68  63  84 NE17      30.14R
LANAI 1*         N/A     66  66 100 NE18G31     N/A
$$

HIZ017>028-200700-
MAUI-

CITY           SKY/WX    TMP DP  RH WIND       PRES   REMARKS
KAHULUI        MOCLDY    73  64  73 NE13      30.10R
KAPALUA-W MAUI NOT AVBL
HANA AIRPORT   NOT AVBL
HANA*            N/A     75 N/A N/A E10G16      N/A
HALEAKALA SUMM   N/A     46  21  36 NE21G37     N/A
MAALAEA BAY*   NOT AVBL
HALEAKALA*     NOT AVBL
KAUPO GAP*       N/A     66  43  42 S3G9        N/A
KULA 1*          N/A     53  43  68 E3          N/A
$$

HIZ023>026-200700-
BIG ISLAND OF HAWAII COAST AND LOWER SLOPES-

CITY           SKY/WX    TMP DP  RH WIND       PRES   REMARKS
KAILUA KONA    CLOUDY    78  61  55 N13       30.04R
HILO           CLOUDY    71  67  87 W10       30.12R
HONOKAA*       NOT AVBL
KAWAIHAE MWT*    N/A     79 N/A N/A W5          N/A
KAWAIHAE*        N/A     77 N/A N/A W10G16      N/A
SOUTH POINT*     N/A     70 N/A N/A NE22G29     N/A
UPOLU AIRPORT*   N/A    N/A N/A N/A NE20G29     N/A
KAMUELA*       CLOUDY    63  59  88 NE28      30.14R
HAKALAU*         N/A     46  41  81 W3          N/A
KALOKO-HONOKO*   N/A     73  63  68 NE3       30.04R
PALI 2*          N/A     64  55  72 N22G31      N/A
KEALAKOMO*       N/A     73  63  68 NE16G29     N/A
KAUPULEHU*       N/A    N/A N/A N/A SW3G12      N/A
KAPAPALA*        N/A     67  60  77 SW5         N/A
LOWER KAHUKU*  NOT AVBL
PUHE CS*       NOT AVBL
PUHO CS*         N/A     76  62  60 N3G9        N/A
PTA KEAMUKU*     N/A     61  55  82 NE6         N/A
WAIKOLOA*        N/A     72  61  68 NE21G33     N/A
$$

HIZ027>028-200700-
BIG ISLAND OF HAWAII INTERIOR AND SUMMMITS-

CITY           SKY/WX    TMP DP  RH WIND       PRES   REMARKS
BRADSHAW FIELD CLOUDY    54  48  81 SE15G21   30.36R
MK VISITOR CEN NOT AVBL
MAUNA KEA*       N/A     39  -6  14 SE10        N/A
MAUNA LOA*       N/A     50  -6  10 MISG        N/A
MAUNA LOA 1*   NOT AVBL
PTA KIPUKA*      N/A     55  54  94 SW7         N/A
PTA RANGE 17*    N/A     57  41  54 E16G25      N/A
PTA WEST*        N/A     64  64 100 NE1G7       N/A
NENE CABIN*    NOT AVBL
AHUMOA*          N/A     51  50  96 NE3G9       N/A
PTA PORTABLE*  NOT AVBL
PUU MALI*      NOT AVBL
$$

HIC003-200700-
NORTHWEST ISLANDS-

CITY           SKY/WX    TMP DP  RH WIND       PRES   REMARKS
MIDWAY ISLAND  CLEAR     73  70  88 SE12      30.20R
MIDWAY NOS*    NOT AVBL
FRENCH FRIGATE NOT AVBL
$$

PHZ110>124-180-200700-
BUOY REPORTS

STATION/POSITION TIME  TEMP    WIND        PRES    WAVE   SWELL
                       AIR SEA DIR/SP/G            HT/PER HT/DIR
                 (UTC) (F)     (DEG/KT/KT) (MB)    (FT/S) (FT/D)
BUOY 51001       NOT AVBL
BUOY 51101       0600   72 74   60/ 19/ 23 1021.7R   8/12   7/320
BUOY 51100       0500   73 73   70/ 16/ 17 1020.7
BUOY 51003       0600   77 78   60/ 16/ 19 1017.8R   8/ 8   5
BUOY 51004       0600   78 78   60/ 17/ 19 1015.1R   9/10   7
BARBERS PT BUOY  NOT AVBL
WAIMEA BAY BUOY  0600      75                N/A     5/12
KAILUA BAY BUOY  0600      76                N/A     7/ 8   2/360
LANAI BUOY       0600      78                N/A     2/13   2/210
BARBERS PT 2     0600      76                N/A     3/10   2/270
PAUWELA MAUI     NOT AVBL
HILO             0600      78                N/A     7/ 8   2/ 90
KANEOHE BAY BUOY 0600      75                N/A     5/ 7
HANALEI KAUAI    0600      76                N/A     7/ 6
KAHULUI HARBOR   0600   75 77   40/ 11/ 16 1019.2R
HONOLULU HARBOR  0600   76      70/  3/  5 1019.9R
KILO NALU        NOT AVBL
HILO HARBOR      0600   71 78  250/  4/  5 1019.6R
MOKUOLOE         0600   75 76   70/ 13/ 17 1020.5R
NAWILIWILI       0600      76                N/A
WHOTS BUOY       NOT AVBL
BUOY 51028       NOT AVBL
$$

......................KEY........................................
  SKY/WX - SKY CONDITIONS/PRESENT WEATHER
  TMP    - TEMPERATURE IN FAHRENHEIT
  DWPT   - DEWPOINT IN FAHRENHEIT
  RH     - RELATIVE HUMIDITY IN PERCENT
  WIND   - DIRECTION AND SPEED /MPH FOR ISLANDS...KTS FOR BUOYS/
  PRES   - MEAN SEA LEVEL PRESSURE IN INCHES OF HG
  VSB    - VISIBILITY IN MILES
  HX     - HEAT INDEX
  WCI    - WIND CHILL INDEX
  VRB    - VARIABLE WIND DIRECTION
  N/A    - NOT AVAILABLE



USA.gov is the U.S. government's official web portal to all federal, state and local government web resources and services.